TimeCST,TemperatureF,Dew PointF,Humidity,Sea Level PressureIn,VisibilityMPH,Wind Direction,Wind SpeedMPH,Gust SpeedMPH,PrecipitationIn,Events,Conditions,WindDirDegrees,DateUTC
12:52 AM,34.0,21.0,59,29.94,10.0,West,19.6,27.6,N/A,,Overcast,280,2013-01-31 06:52:00
1:52 AM,33.1,21.0,61,29.95,10.0,West,10.4,21.9,N/A,,Overcast,280,2013-01-31 07:52:00
2:52 AM,33.1,21.0,61,29.95,10.0,West,15.0,-,N/A,,Overcast,270,2013-01-31 08:52:00
3:52 AM,33.1,19.9,59,29.97,10.0,West,12.7,-,N/A,,Overcast,270,2013-01-31 09:52:00
4:52 AM,30.9,18.0,59,29.99,10.0,West,15.0,25.3,N/A,,Overcast,280,2013-01-31 10:52:00
5:52 AM,30.9,19.0,61,30.01,10.0,West,10.4,-,N/A,,Overcast,280,2013-01-31 11:52:00
6:52 AM,30.9,19.9,64,30.04,10.0,West,9.2,-,N/A,,Overcast,270,2013-01-31 12:52:00
7:52 AM,32.0,19.9,61,30.06,10.0,WSW,9.2,-,N/A,,Mostly Cloudy,240,2013-01-31 13:52:00
9:52 AM,35.1,21.0,57,30.10,10.0,WSW,12.7,20.7,N/A,,Clear,250,2013-01-31 15:52:00
10:52 AM,37.9,21.0,51,30.11,10.0,West,16.1,23.0,N/A,,Partly Cloudy,270,2013-01-31 16:52:00
11:52 AM,39.0,21.9,50,30.09,10.0,WSW,11.5,18.4,N/A,,Partly Cloudy,250,2013-01-31 17:52:00
12:52 PM,41.0,21.0,45,30.06,10.0,WNW,15.0,23.0,N/A,,Clear,290,2013-01-31 18:52:00
1:52 PM,43.0,23.0,45,30.04,10.0,West,11.5,20.7,N/A,,Clear,270,2013-01-31 19:52:00
2:52 PM,43.0,21.9,43,30.03,10.0,SW,12.7,23.0,N/A,,Clear,230,2013-01-31 20:52:00
3:52 PM,43.0,23.0,45,30.03,10.0,WSW,12.7,-,N/A,,Overcast,250,2013-01-31 21:52:00
4:52 PM,43.0,23.0,45,30.04,10.0,WSW,12.7,-,N/A,,Overcast,250,2013-01-31 22:52:00
5:52 PM,42.1,24.1,49,30.04,10.0,WSW,8.1,-,N/A,,Overcast,250,2013-01-31 23:52:00
6:52 PM,43.0,26.1,51,30.05,10.0,WSW,9.2,-,N/A,,Overcast,250,2013-02-01 00:52:00
7:52 PM,39.0,32.0,76,30.08,10.0,WNW,21.9,27.6,0.00,Rain,Light Rain,290,2013-02-01 01:52:00
8:15 PM,35.6,33.8,93,30.09,6.0,WNW,19.6,27.6,0.02,Rain,Light Rain,290,2013-02-01 02:15:00
8:26 PM,33.8,32.0,93,30.10,2.5,WNW,19.6,28.8,0.02,Snow,Light Snow,300,2013-02-01 02:26:00
8:52 PM,33.1,30.9,92,30.14,0.8,WNW,13.8,23.0,0.03,Snow,Light Snow,300,2013-02-01 02:52:00
9:11 PM,33.8,30.2,87,30.13,1.2,NW,16.1,29.9,0.00,Snow,Light Snow,310,2013-02-01 03:11:00
9:19 PM,32.0,30.2,93,30.14,1.8,WNW,15.0,-,0.00,Snow,Light Snow,300,2013-02-01 03:19:00
9:28 PM,32.0,30.2,93,30.14,2.5,NW,17.3,24.2,0.00,Snow,Light Snow,310,2013-02-01 03:28:00
9:36 PM,32.0,26.6,80,30.14,8.0,NW,21.9,29.9,0.00,Snow,Light Snow,320,2013-02-01 03:36:00
9:52 PM,32.0,25.0,75,30.16,10.0,NW,23.0,28.8,0.00,,Overcast,310,2013-02-01 03:52:00
10:22 PM,28.4,23.0,80,30.19,10.0,NNW,25.3,33.4,N/A,,Overcast,340,2013-02-01 04:22:00
10:52 PM,27.0,19.9,75,30.23,10.0,NNW,23.0,32.2,N/A,,Overcast,330,2013-02-01 04:52:00
11:52 PM,25.0,18.0,75,30.28,10.0,NW,16.1,-,N/A,,Scattered Clouds,310,2013-02-01 05:52:00